Regional Weather Roundup
Issued by NWS

Home | Current Version | Previous Version | Graphics & Text | Print | Product List | Glossary On
Versions: 1 2 3 4 5 6 7 8 9 10 11 12 13 14 15 16 17 18 19 20 21 22 23 24 25 26 27 28 29 30 31 32 33 34 35 36 37 38 39 40 41 42 43 44 45 46 47 48 49 50
000
ASUS43 KFSD 192010
RWRSD

WEATHER ROUNDUP FOR SOUTH DAKOTA
NATIONAL WEATHER SERVICE SIOUX FALLS SD
200 PM CST SUN FEB 19 2017

NOTE: "FAIR" INDICATES FEW OR NO CLOUDS BELOW 12,000 FEET WITH NO
SIGNIFICANT WEATHER AND/OR OBSTRUCTIONS TO VISIBILITY.


SDZ001>005-009-010-012>017-192100-
NORTHWEST AND NORTH CENTRAL SOUTH DAKOTA

CITY           SKY/WX    TMP DP  RH WIND       PRES   REMARKS
BUFFALO          N/A     65  32  29 SW21G26   29.38F
FAITH            N/A     63  37  38 S17       29.46F
MOBRIDGE       SUNNY     48  37  65 SE12      29.49S
$$

SDZ012>016-024>037-041>051-057-063-072>074-192100-
SOUTHWEST AND SOUTH CENTRAL SOUTH DAKOTA

CITY           SKY/WX    TMP DP  RH WIND       PRES   REMARKS
RAPID CTY ARPT CLOUDY    68  31  25 SW18      29.48F
PIERRE         CLOUDY    63  38  39 S20       29.50F
CUSTER         CLOUDY    53  28  38 SW8G24    29.58F
ELLSWORTH AFB  MOSUNNY   67  31  26 SW13      29.47F
PHILIP         MOSUNNY   71  31  22 SW20G30   29.49F
PINE RIDGE     PTSUNNY   55  37  50 S12       29.57F
SPEARFISH      FAIR      63  30  29 SW12      29.49F
WINNER         FAIR      68  41  37 S20       29.57F
$$

SDZ004>011-016>023-039-040-192100-
NORTHEAST SOUTH DAKOTA

CITY           SKY/WX    TMP DP  RH WIND       PRES   REMARKS
ABERDEEN       SUNNY     60  46  59 S17G26    29.57F
WATERTOWN      MOSUNNY   56  47  71 SE16G23   29.65F
BROOKINGS      CLOUDY    59  50  72 S20G26    29.69F
SISSETON         N/A     57  49  74 S21       29.64F
$$

SDZ017-020-022-023-036>040-048>070-192100-
SOUTHEAST SOUTH DAKOTA

CITY           SKY/WX    TMP DP  RH WIND       PRES   REMARKS
SIOUX FALLS    CLOUDY    63  50  62 S20G28    29.72F
HURON          CLOUDY    59  46  62 S18G25    29.61R
CHAMBERLAIN    CLOUDY    66  47  50 S21       29.57F
MITCHELL       MOSUNNY   62  50  64 S22G29    29.62F
YANKTON        MOSUNNY   63  50  63 S15       29.69F
$$

ABBREVIATIONS USED IN REMARKS
   TC - TEMPERATURE IN CELSIUS
  WCI - WIND CHILL INDEX
   HX - HEAT INDEX
  VSB - VISIBILITY





USA.gov is the U.S. government's official web portal to all federal, state and local government web resources and services.